Regional Weather Roundup
Issued by NWS

Home | Current Version | Previous Version | Graphics & Text | Print | Product List | Glossary On
Versions: 1 2 3 4 5 6 7 8 9 10 11 12 13 14 15 16 17 18 19 20 21 22 23 24 25 26 27 28 29 30 31 32 33 34 35 36 37 38 39 40 41 42 43 44 45 46 47 48 49 50
000
ASUS43 KDTX 312101
RWRMI
MICHIGAN HOURLY REGIONAL WEATHER ROUNDUP
NATIONAL WEATHER SERVICE DETROIT/PONTIAC MI
500 PM EDT MON AUG 31 2015

NOTE: "FAIR" INDICATES FEW OR NO CLOUDS BELOW 12,000 FEET WITH NO
SIGNIFICANT WEATHER AND/OR OBSTRUCTION TO VISIBILITY.

MIZ047>049-052>055-059>063-066>070-074>076-081>083-312200-
SOUTHEAST LOWER MICHIGAN

CITY           SKY/WX    TMP DP  RH WIND       PRES   REMARKS
ADRIAN         FAIR      86  65  49 NW8       30.05F
ALMA           FAIR      78  68  72 SW7       30.06S
ANN ARBOR      FAIR      84  67  56 W7        30.04F
BAD AXE        FAIR      77  65  65 W6        30.05S
CARO           FAIR      78  67  70 SW6       30.04F
DETROIT CITY   FAIR      85  64  49 NW9       30.03F
DETROIT        FAIR      85  67  54 W9        30.04F
FLINT          FAIR      82  66  58 SW8       30.05F
GROSSE ILE     FAIR      81  72  74 SE3       30.03F
HILLSDALE      FAIR      85  64  49 SW6       30.06F
HOWELL         FAIR      82  64  54 W7        30.05F

CITY           SKY/WX    TMP DP  RH WIND       PRES   REMARKS
JACKSON        FAIR      81  68  64 W9        30.05F
LAMBERTVILLE   FAIR      86  66  51 W3        30.04F
LANSING        FAIR      80  66  62 W8        30.05F
LAPEER         FAIR      79  64  59 W6        30.05F
MASON          FAIR      80  64  56 SW5       30.06F
MONROE         FAIR      87  66  49 W9        30.03F
MT. CLEMENS    SUNNY     78  67  68 E7        30.03F
PONTIAC        FAIR      81  65  58 W7        30.05F
PORT HOPE        N/A     72  67  84 SE7       30.02F
PORT HURON     FAIR      79  66  65 SW3       30.04F
TRI CITIES     FAIR      79  67  66 SW8       30.05F
MIDLAND        FAIR      80  65  61 SW6       30.03F
TROY           FAIR      84  62  46 W5        30.06F
SAGINAW HB     FAIR      79  68  69 SW5       30.04S
$$
MIZ043>046-050>051-056>058-064>065-071>073-077>080-312200-
SOUTHWEST LOWER MICHIGAN

CITY           SKY/WX    TMP DP  RH WIND       PRES   REMARKS
BATTLE CREEK   FAIR      82  67  60 W6        30.06F
BENTON HARBOR  FAIR      78  66  66 W7        30.04F
BIG RAPIDS     FAIR      78  67  69 SW6       30.04F
COLDWATER      FAIR      83  67  57 W6        30.05F
FREMONT        FAIR      77  67  70 SW6       30.04F
HOLLAND        FAIR      80  66  62 W8        30.06S
GRAND RAPIDS   FAIR      80  67  64 SW6       30.05F
IONIA          FAIR      81  66  60 W7        30.04F
KALAMAZOO      FAIR      83  66  56 W9        30.05F
LUDINGTON      FAIR      76  70  80 SW10      30.04F
MARSHALL       FAIR      83  68  60 W7        30.05F
MOUNT PLEASANT FAIR      81  65  58 S6        30.04S
MUSKEGON       PTSUNNY   77  64  64 W7        30.05F
SOUTH HAVEN    FAIR      78  66  66 W7        30.05F
$$
MIZ016>042-312200-
NORTHERN LOWER MICHIGAN

CITY           SKY/WX    TMP DP  RH WIND       PRES   REMARKS
ALPENA         FAIR      73  65  75 E10       30.02S
BEAVER ISLAND  PTSUNNY   71  66  82 SW8       29.99F
BELLAIRE       FAIR      82  64  54 SW5       30.00F
CADILLAC       FAIR      78  64  62 SW8       30.05S
CHARLEVOIX     FAIR      75  67  75 W12       30.03F
FRANKFORT      FAIR      73  67  82 SW10G16   30.02F
GAYLORD        FAIR      81  62  52 S6        30.03F
GRAYLING       FAIR      83  62  49 SW5       30.03F
HARBOR SPRINGS FAIR      74  67  77 SW6       30.00F
HOUGHTON LAKE  FAIR      81  63  54 SW6       30.04F
MANISTEE       FAIR      75  64  69 SW9       30.03F
OSCODA         FAIR      81  67  61 SW8       30.00S
PELLSTON       FAIR      80  67  64 W5        30.00F
ROGERS CITY    FAIR      72  65  79 E8        30.03S
TRAVERSE CITY  FAIR      82  66  58 SW8       29.99F
$$
MIZ007>008-015-312200-
EASTERN UPPER MICHIGAN

CITY           SKY/WX    TMP DP  RH WIND       PRES   REMARKS
KINROSS        FAIR      75  66  73 S8        29.99F
MACKINAC ISLAN FAIR      72  66  81 W9G17     30.00S
NEWBERRY       FAIR      70  64  81 S12       29.98S
S. S. MARIE    FAIR      76  65  68 S9        29.98S
$$
MIZ004>006-011>014-085-312200-
CENTRAL UPPER MICHIGAN

CITY           SKY/WX    TMP DP  RH WIND       PRES   REMARKS
MANISTIQUE     CLOUDY    66  63  89 S12       29.98S
ESCANABA       FAIR      72  64  78 S13       29.95F
MENOMINEE      FAIR      77  66  69 SW12      29.96S
SAWYER-GWINN   SUNNY     84  63  48 SW13      29.94S
$$
MIZ001>003-009>011-084-312200-
WESTERN UPPER MICHIGAN

CITY           SKY/WX    TMP DP  RH WIND       PRES   REMARKS
IRON MOUNTAIN  FAIR      85  64  49 SW12      29.94F
HOUGHTON       FAIR      84  66  54 SE7       29.87F
IRONWOOD       FAIR      81  63  54 S15       29.87S
$$

ABBREVIATIONS USED IN REMARKS
   TC - TEMPERATURE IN CELSIUS
  WCI - WIND CHILL INDEX
   HX - HEAT INDEX
  VSB - VISIBILITY




USA.gov is the U.S. government's official web portal to all federal, state and local government web resources and services.